Skagway, AK

3:50 AM AKDT on June 26, 2017 (GMT -0800)
Skagway

Weather History for PAGY - October, 2012

Change the Weather History Date:

Tuesday, October 9, 2012

  Actual Average Record
Temperature  
Mean Temperature 48 °F -  
Max Temperature 55 °F 47 °F 57 °F (1981)
Min Temperature 42 °F 38 °F 24 °F (1983)
Degree Days  
Heating Degree Days 16    
Moisture  
Dew Point 41 °F    
Average Humidity 88    
Maximum Humidity 96    
Minimum Humidity 42    
Precipitation  
Precipitation 0.00 in - - ()
Sea Level Pressure  
Sea Level Pressure 30.09 in    
Wind  
Wind Speed 1 mph (SW)    
Max Wind Speed 13 mph    
Max Gust Speed 23 mph    
Visibility 10 miles    
Events      
Averages and records for this station are not official NWS values.
T = Trace of Precipitation, MM = Missing Value Source: NWS Daily Summary

Daily Weather History Graph

Daily Weather History Graph

Search for Another Location

Airport or City:

Trip Planner

Search our weather history database for the weather conditions in past years. The results will help you decide how hot, cold, wet, or windy it might be!

Date:

Astronomy

Oct. 09, 2012 Rise Set
Actual Time 7:26 AM AKDT 6:08 PM AKDT
Civil Twilight 6:45 AM AKDT 6:49 PM AKDT
Nautical Twilight 5:58 AM AKDT 7:36 PM AKDT
Astronomical Twilight 5:09 AM AKDT 8:25 PM AKDT
Moon No Moon Rise 3:54 PM AKDT (10/9)
Length of Visible Light 12h 04m
Length of Day
10h 41m
Waning Crescent, 35% of the Moon is Illuminated
Oct 9
Waning Crescent
Oct 15
New
Oct 21
First Quarter
Oct 29
Full
Nov 6
Last Quarter

Hourly Weather History & Observations

Time (AKDT) Temp. Windchill Dew Point Humidity Pressure Visibility Wind Dir Wind Speed Gust Speed Precip Events Conditions
12:30 AM 44.6 °F - 42.8 °F 93% 30.11 in 7.0 mi Calm Calm - N/A   Overcast
12:43 AM 44.6 °F - 42.8 °F 93% 30.11 in 10.0 mi Calm Calm - N/A   Overcast
12:53 AM 45.0 °F - 43.0 °F 93% 30.11 in 10.0 mi Calm Calm - N/A   Overcast
1:15 AM 44.6 °F - 42.8 °F 93% 30.11 in 10.0 mi Calm Calm - N/A   Overcast
1:53 AM 45.0 °F - 43.0 °F 93% 30.10 in 10.0 mi Calm Calm - N/A   Overcast
2:00 AM 44.6 °F - 42.8 °F 93% 30.10 in 10.0 mi Calm Calm - N/A   Overcast
2:17 AM 44.6 °F - 42.8 °F 93% 30.10 in 10.0 mi Calm Calm - N/A   Overcast
2:53 AM 44.1 °F - 43.0 °F 96% 30.10 in 10.0 mi Calm Calm - N/A   Overcast
3:01 AM 44.6 °F - 42.8 °F 93% 30.09 in 10.0 mi Calm Calm - N/A   Overcast
3:38 AM 44.6 °F - 42.8 °F 93% 30.09 in 10.0 mi Calm Calm - N/A   Overcast
3:53 AM 45.0 °F - 43.0 °F 93% 30.10 in 10.0 mi Calm Calm - N/A   Overcast
4:53 AM 45.0 °F - 43.0 °F 93% 30.09 in 10.0 mi Calm Calm - N/A   Overcast
5:53 AM 45.0 °F - 42.1 °F 90% 30.08 in 10.0 mi Calm Calm - N/A   Overcast
6:53 AM 44.1 °F - 39.9 °F 85% 30.09 in 10.0 mi Calm Calm - N/A   Overcast
7:53 AM 43.0 °F - 39.9 °F 89% 30.09 in 10.0 mi Calm Calm - N/A   Overcast
8:53 AM 43.0 °F - 39.0 °F 86% 30.09 in 10.0 mi Calm Calm - N/A   Overcast
9:53 AM 42.1 °F - 39.0 °F 89% 30.09 in 10.0 mi Calm Calm - N/A   Overcast
10:53 AM 42.1 °F - 39.0 °F 89% 30.10 in 10.0 mi Calm Calm - N/A   Overcast
11:53 AM 42.1 °F 40.2 °F 39.9 °F 92% 30.09 in 10.0 mi SW 3.5 mph - N/A   Mostly Cloudy
12:26 PM 44.6 °F 42.2 °F 41.0 °F 87% 30.08 in 10.0 mi SSW 4.6 mph - N/A   Scattered Clouds
12:53 PM 43.0 °F 41.3 °F 39.9 °F 89% 30.08 in 10.0 mi SW 3.5 mph - N/A   Partly Cloudy
1:53 PM 45.0 °F 41.2 °F 41.0 °F 86% 30.06 in 10.0 mi SW 6.9 mph - N/A   Clear
2:53 PM 45.0 °F 40.6 °F 42.1 °F 90% 30.06 in 10.0 mi SSW 8.1 mph - N/A   Partly Cloudy
3:53 PM 46.0 °F 41.4 °F 42.1 °F 86% 30.06 in 10.0 mi SSW 9.2 mph - N/A   Overcast
4:53 PM 45.0 °F 41.8 °F 42.1 °F 90% 30.06 in 10.0 mi SW 5.8 mph - N/A   Overcast
5:53 PM 44.1 °F 40.8 °F 42.1 °F 93% 30.06 in 10.0 mi SSW 5.8 mph - N/A   Mostly Cloudy
6:53 PM 44.1 °F 42.5 °F 42.1 °F 93% 30.09 in 10.0 mi SW 3.5 mph - N/A   Mostly Cloudy
7:53 PM 44.1 °F - 42.1 °F 93% 30.09 in 10.0 mi Calm Calm - N/A   Overcast
8:53 PM 44.1 °F - 41.0 °F 89% 30.10 in 10.0 mi Calm Calm - N/A   Overcast
9:53 PM 44.1 °F 42.5 °F 42.1 °F 93% 30.10 in 10.0 mi SW 3.5 mph - N/A   Overcast
10:53 PM 55.0 °F - 33.1 °F 43% 30.11 in 10.0 mi North 11.5 mph 21.9 mph N/A   Overcast
11:53 PM 55.0 °F - 32.0 °F 42% 30.12 in 10.0 mi NNE 12.7 mph 23.0 mph N/A   Overcast